COSMOS 2251 DEB, 47073

Orbit data source: Space-Track

COSMOS 2251 DEB, 47073 is space debris in LEO originally from a launch on Wed, 16 Jun 1993 UTC launched from the Plesetsk Missile And Space Complex (PKMTR). The debris from Iridium 33, an American commercial communications satellite, has been tracked extensively since its accidental collision with the defunct Russian satellite Cosmos 2251 in 2009. This event, occurring at high speed in low Earth orbit (LEO), generated thousands of pieces of space debris, significantly increasing the risk of further collisions. The Iridium 33 debris cloud has impacted space traffic management and orbital debris mitigation strategies, making it a subject of ongoing study in space situational awareness.

Loading next visibility...
Identifier
47073, 1993-036BYD
Orbit
LEO
Country
Flag of CISCIS
Related business
Manufacturer
Unknown
Mission
Spacecraft
Bus & Motor
Unknown
Mass
Unknown
Launch date (UTC)
1993-06-16 (33 years ago)
Launch vehicle
Unknown
Launch site
Plesetsk Missile And Space Complex (PKMTR)
Object type
Payload
Rocket body
Debris
Shape & HBR
Unknown shape, 0.1 m
Radar Cross Section
Small (<0.1 m²)

Expand to show TLE details & history
Last TLE update: 5 days ago

TLE from 5 days ago
0 COSMOS 2251 DEB
1 47073U 93036BYD 25349.30090678  .00000830  00000-0  47491-3 0  9997
2 47073  74.0808 197.3835 0161495 235.0635 123.5242 14.04726954603972
Epoch: 2025-12-15T07:13Z
TLE epoch observation values (Epoch: 2025-12-15T07:13:18.345Z)
Latitude
-0.00004°
Longitude
4.85561°
Altitude
946.07 km
Speed
7.345 km/s
True Right ascension
13h 09m 32s
True Declination
0° 00' 00"
Sunlit
Object was in daylight at epoch
Visualization orbit readout
Latitude
Unknown
Longitude
Unknown
Altitude
Unknown
Speed
Unknown
Apparent Right ascension
Unknown
Apparent Declination
Unknown
Sunlit
N/A
Visualization observer readout
Local Sidereal Time
06:04:01
Azimuth
Unknown
Elevation
Unknown
Doppler factor
Unknown
Orbital elements
Apogee altitude
992.263 km
Perigee altitude
757.99 km
Semi-major axis
7,253.264 km
Eccentricity
0.01615
Inclination
74.0808°
RAAN
197.3835°
Arg. of periapsis
235.0635°
True anomaly
125.04976°
Mean anomaly
123.5242°
Eccentric anomaly
124.28869°
Mean motion
3.51352 °/min
Orbital period
102.46 mins
BSTAR
0.00047491
Loading maneuver chart data...
Computing Atmospheric mass density...

Documentation

Showing up to 5 results
|